Regional Weather Roundup
Issued by NWS

Home | Current Version | Previous Version | Graphics & Text | Print | Product List | Glossary On
Versions: 1 2 3 4 5 6 7 8 9 10 11 12 13 14 15 16 17 18 19 20 21 22 23 24 25 26 27 28 29 30 31 32 33 34 35 36 37 38 39 40 41 42 43 44 45 46 47 48 49 50
000
ASUS45 KABQ 200601
RWRNM
NEW MEXICO REGIONAL WEATHER ROUNDUP
NATIONAL WEATHER SERVICE ALBUQUERQUE NM
1100 PM MST FRI JAN 19 2018

NOTE: "FAIR" MEANS FEW OR NO CLOUDS BELOW 12,000 FEET AGL WITH NO
       SIGNIFICANT WEATHER OR OBSTRUCTIONS TO VISION.

      THIS PRODUCT IS RELEASED AS TWO VERSIONS.  ONE VERSION NEAR
      THE TOP OF THE HOUR CONTAINING PRELIMINARY DATA FROM ALBUQUERQUE
      AND OTHER STATIONS.  A FINAL VERSION WITH ADDITIONAL DATA IS
      ISSUED ABOUT 10 MINUTES AFTER THE HOUR.

NMZ501-503-504-510>518-200700-
NORTHWEST PLATEAU/NORTHCENTRAL MOUNTAINS

CITY           SKY/WX    TMP DP  RH WIND       PRES   REMARKS
FARMINGTON     FAIR      33  15  47 E10       29.94F WCI  25
6HR MIN TEMP:  32; 6HR MAX TEMP:  56;

LOS ALAMOS     MOCLDY    43  13  29 CALM      30.03F
SANTA FE       FAIR      42  13  30 W7        30.02R
6HR MIN TEMP:  38; 6HR MAX TEMP:  50;

TAOS           FAIR      29  12  49 CALM      30.06S
ANGEL FIRE     FAIR      18  10  70 SW5       30.07S WCI  11

$$
NMZ402-403-502-505>509-200700-
WESTCENTRAL MOUNTAINS/SOUTHWEST MOUNTAINS

CITY           SKY/WX    TMP DP  RH WIND       PRES   REMARKS
GALLUP         FAIR      35  12  38 W6        30.03S WCI  30
6HR MIN TEMP:  32; 6HR MAX TEMP:  56;

GRANTS         FAIR      31  10  41 CALM      30.06S
SILVER CITY    FAIR      33  12  42 NW9       30.07R WCI  25

$$
NMZ407-409-411-412-200700-
SOUTHERN DESERTS

CITY           SKY/WX    TMP DP  RH WIND       PRES   REMARKS
DEMING         FAIR      37  12  35 W8        30.03S WCI  31
6HR MIN TEMP:  36; 6HR MAX TEMP:  64;

LAS CRUCES     FAIR      40  14  34 SW5       30.04S
HOLLOMAN AFB   FAIR      31   8  37 N5        30.04S WCI  26
ALAMOGORDO     FAIR      36   9  32 N5        30.03S WCI  32
T OR C         FAIR      45  10  24 NW8       30.01R
6HR MIN TEMP:  40; 6HR MAX TEMP:  60;


$$
NMZ519>523-200700-
CENTRAL VALLEYS/CENTRAL HIGHLANDS

CITY           SKY/WX    TMP DP  RH WIND       PRES   REMARKS
ALBUQUERQUE    FAIR      41  13  31 E5        30.02R
6HR MIN TEMP:  36; 6HR MAX TEMP:  54;

MORIARTY ARPT  FAIR      23   5  45 CALM      30.04S
6HR MIN TEMP:  23; 6HR MAX TEMP:  56;

CLINES CORNERS FAIR      34   9  35 W13       30.04S WCI  25
6HR MIN TEMP:  33; 6HR MAX TEMP:  51;

BELEN          FAIR      33  10  37 S3        30.02S
6HR MIN TEMP:  33; 6HR MAX TEMP:  54;

SOCORRO        FAIR      36  11  35 SW7       30.02R WCI  31
6HR MIN TEMP:  36; 6HR MAX TEMP:  53;


$$
NMZ524>526-539-540-200700-
SOUTHCENTRAL MOUNTAINS

CITY           SKY/WX    TMP DP  RH WIND       PRES   REMARKS
RUIDOSO        FAIR      46   5  18 W3        30.07R

$$
NMZ527>531-200700-
NORTHEAST HIGHLANDS/NORTHEAST PLAINS

CITY           SKY/WX    TMP DP  RH WIND       PRES   REMARKS
LAS VEGAS      FAIR      39  13  34 SW5       29.98S
6HR MIN TEMP:  33; 6HR MAX TEMP:  57;

RATON          FAIR      40  14  34 CALM      29.92R
6HR MIN TEMP:  36; 6HR MAX TEMP:  60;

CLAYTON        FAIR      57  15  19 W15G25    29.81S
6HR MIN TEMP:  45; 6HR MAX TEMP:  65;


$$
NMZ532>537-200700-
EASTCENTRAL PLAINS

CITY           SKY/WX    TMP DP  RH WIND       PRES   REMARKS
TUCUMCARI      FAIR      52  13  21 W17       29.82R
6HR MIN TEMP:  45; 6HR MAX TEMP:  64;

CANNON AFB     FAIR      43  10  26 W13       29.89R
6HR MIN TEMP:  43; 6HR MAX TEMP:  63;

CLOVIS AIRPORT FAIR      47  12  24 W16       29.86R

$$
NMZ028-029-538-200700-
SOUTHEAST PLAINS

CITY           SKY/WX    TMP DP  RH WIND       PRES   REMARKS
ROSWELL        FAIR      35   8  32 E3        29.90S
6HR MIN TEMP:  35; 6HR MAX TEMP:  66;

ARTESIA        FAIR      50  14  23 CALM      29.91R
CARLSBAD       FAIR      43  13  29 CALM      29.90R
6HR MIN TEMP:  43; 6HR MAX TEMP:  66;

HOBBS          FAIR      46  12  25 W9        29.90S


$$



USA.gov is the U.S. government's official web portal to all federal, state and local government web resources and services.